Tracking 30995 objects as of 5-Jul-2025
HD Live streaming from Space Station
objects crossing your sky now

DELTA 1 DEB

Track DELTA 1 DEB now!
10-day predictions


NORAD ID: 21291
Int'l Code: 1975-052AC
Perigee: 860.1 km
Apogee: 1,060.7 km
Inclination: 99.8 °
Period: 104.1 minutes
Semi major axis: 7331 km
RCS: 0.0114 m2 (small)
Launch date: June 12, 1975
Source: United States (US)
Launch site: AIR FORCE WESTERN TEST RANGE (AFWTR)

Note: This is SATELLITE DEBRIS
Your satellite tracking list
Your tracking list is empty




NASA's NSSDC Master Catalog

Two Line Element Set (TLE):
1 21291U 75052AC  25186.32453391  .00000387  00000-0  37167-3 0  9991
2 21291  99.8463 328.6270 0136872 234.4693 194.8238 13.83001743719699
Source of the keplerian elements: AFSPC